Orbital Elements at Epoch 2459200.5 (2020-Dec-17.0) TDB
Reference: JPL 20 (heliocentric ecliptic J2000)
Element | Value | Uncertainty (1-sigma) | Units |
e | .1481820788822837 | 4.2378e-08 | |
a | 3.222534588302326 | 2.2701e-08 | au |
q | 2.745012713737624 | 1.4663e-07 | au |
i | 4.692537396360006 | 6.2293e-06 | deg |
node | 30.35855707627632 | 5.3359e-05 | deg |
peri | 44.85703565904345 | 5.7582e-05 | deg |
M | 320.0934797541729 | 2.2285e-05 | deg |
tp | 2459434.726574630695 (2021-Aug-08.22657463) | 0.00013167 | TDB |
period | 2112.977186375138 5.79 | 2.2327e-05 6.113e-08 | d yr |
n | .1703757155171128 | 1.8003e-09 | deg/d |
Q | 3.700056462867029 | 2.6064e-08 | au |
|
| | Orbit Determination Parameters
Additional Information
|